Location: Seattle
(47.6064°N, 122.3308°W)
Time: 15:09:35
(UTC-08:00)

S-56A Canister/Altair - Pass Details

Date: 10 October 2022
Orbit: 638 x 2494 km, 38.9° (Epoch: 03 December)

Event Time Altitude Azimuth Distance (km) Brightness Sun altitude
Exits shadow 02:46:20 19° 116° (ESE) 2,927 10.5 -42.9°
Drops below altitude 10° 02:48:10 10° 111° (ESE) 3,419 10.9 -42.7°
Sets 02:50:41 0° 106° (ESE) 4,170 11.5 -42.4°
